Location: Erlenbrunn
(49.1717°N, 7.6142°E)
Time: 18:26:33
(UTC+00:00)

CSL-04 Rocket - Visible Passes

Search period start: 16 April 2021 00:00
Search period end: 26 April 2021 00:00
Orbit: 805 x 861 km, 98.9° (Epoch: 15 April)

Date Brightness Start Highest point End Pass type
(mag) Time Alt. Az. Time Alt. Az. Time Alt. Az.
16 Apr 5.1 19:21:57 10° SSW 19:26:52 38° W 19:31:48 10° NNW visible
17 Apr 4.5 19:04:39 10° S 19:09:48 52° W 19:14:59 10° NNW visible
18 Apr 6.5 20:32:45 10° W 20:34:05 11° W 20:35:25 10° WNW visible
19 Apr 6.3 20:13:46 10° SW 20:16:51 16° W 20:19:57 10° NW visible
20 Apr 6.0 19:55:41 10° SW 19:59:40 21° W 20:03:40 10° NW visible
21 Apr 5.5 19:37:58 10° SSW 19:42:31 29° W 19:47:07 10° NW visible
22 Apr 5.0 19:20:30 10° SSW 19:25:25 39° W 19:30:24 10° NNW visible
23 Apr 4.4 19:03:13 10° S 19:08:23 54° W 19:13:35 10° NNW visible
24 Apr 6.5 20:31:01 10° WSW 20:32:38 11° W 20:34:16 10° WNW visible
25 Apr 6.2 20:12:12 10° SW 20:15:24 16° W 20:18:37 10° NW visible
